User: anonymous   Login
Location: Armidale
(30.5016°S, 151.6662°E)
Time: 16:32:08
(UTC+10:00)
Language:

MOZHAYETS 4 - Orbit

View from above orbital plane
View from above orbital plane
View from above satellite
View from above satellite

Ground track
Ground track

The orbit data is extracted from the following two-line orbital elements,

1 27939U 03042A   21209.64731654  .00000217  00000-0  47418-4 0  9997
2 27939  98.1476 346.4658 0013761 145.8489 214.3611 14.67004770953562
Epoch (UTC): 28 July 2021 15:32:08
Eccentricity: 0.0013761
inclination: 98.1476°
perigee height: 661 km
apogee height: 680 km
right ascension of ascending node: 346.4658°
argument of perigee: 145.8489°
revolutions per day: 14.67004770
mean anomaly at epoch: 214.3611°
orbit number at epoch: 95356

The dashed part of the orbit path shows where the satellite is in the earth's shadow,  

DLR